Location: Boley
(53.1150°N, 8.2269°W)
Time: 02:28:29
(UTC+00:00)

Cosmos 1805 - Pass Details

Date: 15 May 2026
Orbit: 411 x 414 km, 82.5° (Epoch: 8 June)

Event Time Altitude Azimuth Distance (km) Brightness Sun altitude
Rises 22:01:10 0° 347° (NNW) 2,384 8.0 -11.1°
Reaches altitude 10° 22:03:13 10° 345° (NNW) 1,512 6.8 -11.2°
Maximum altitude 22:06:29 71° 261° (W) 448 2.9 -11.5°
Enters shadow 22:09:01 16° 179° (S) 1,199 4.6 -11.7°
